Погода в Сан-Педро

Кот-д’Ивуар     5°18′05″N   6°07′00″W
темп.,
°C
ветер,
м/с
пор.,
м/с
влажн.,
%
обл.,
%
осадки,
мм/ч
давл.,
гПа
погр.,
м
1 марта, пн
пн100:00+23юз1396100 3.2 101099
03:00+23з1297100 0.0 100835
06:00+23зюз129793 0.0 100883
09:00+26юз148332 0.0 1010420
12:00+32ююз115542 0.0 10091255
15:00+31ю226384 2.3 10071019
18:00+27ю257861 2.4 1007495
21:00+24ююз169282 0.1 1010222
2 марта, вт
вт200:00+24з119588 0.1 101024
03:00+23ююз159753 0.0 1008174
06:00+23зюз129937 0.0 100867
09:00+27юз247960 0.0 1011682
12:00+29юз126873 0.1 1010906
15:00+30ююв236497 0.1 10081019
18:00+27ю257670 0.3 1008576
21:00+24ю11930 0.0 101027
3 марта, ср
ср300:00+23зюз129513 0.0 101065
03:00+23зюз139854 0.0 1008127
06:00+23з129943 0.0 100951
09:00+28юз247796 0.0 1011668
12:00+30юз236398 0.1 10111123
15:00+30ю236693 0.1 10081017
18:00+28ю257479 0.3 1008587
21:00+24ююз16932 0.0 1010259
4 марта, чт
чт400:00+24зюз16971 0.0 1011226
03:00+24зюз289610 0.0 1008338
06:00+23з189818 0.0 1009314
09:00+27зюз267625 0.0 1011765
12:00+31з346142 0.1 10101223
15:00+31юз246487 0.1 10071128
18:00+28ю367690 0.3 1007555
21:00+24юз2109544 2.2 1009456
5 марта, пт
пт500:00+24зюз189738 2.6 1010399
03:00+23зюз289732 0.0 1008366
06:00+23зюз179864 0.0 1008305
09:00+26юз268396 0.0 1010654
12:00+31юз346498 0.2 10101170
15:00+30ююз346979 0.7 10071032
18:00+27ю268176 2.6 1008691
21:00+25ююз289231 0.0 1010465